UKDEUKDD

Guest
Details From UKDE - Zaporizhzhia Intl
To UKDD - Dnipropetrovsk Intl
Flight Number -
Tags Generated
Created
Modified
Stats Distance 31 nm / 58 km
Max Altitude 0 ft / 0 m
Waypoints 2
Social Downloads 0
Likes 0
Share VATSIM

Download

Looking for another format? Having issues loading an existing format? Contact us
Advertisement - Login to hide

Notes

Generated

Route

UKDE UKDD

ID Type Via Altitude Latitude Longitude Leg Dist Tot Dist Heading (true) Name
O UKDE APT - 0 ft / 0 m 47.85666˚ 35.30911˚ - 0 nm - -
O UKDD APT - 0 ft / 0 m 48.35722˚ 35.08126˚ 31 nm 31 nm 343° / 343° -

Altitude Profile

Advertisement - Login to hide

UKDE

Details ICAO UKDE (OZH)
Name ZAPORIZHZHIA INTL
Region Ukraine
Timezone Europe/Zaporozhye (UTC+3.0)
Stats Elevation 373 ft / 114 m (AMSL)
Location 47.867005° 35.315693°
Runways 1
Magnetic Variation 7.776° E

METAR

UKDE 220000Z 36003MPS CAVOK 12/11 Q1019 R02/CLRD70 NOSIG

Decode

TAF

Not found

Departure Runways

ID Width Length Bearing (true) Bearing (mag) Surface Threshold Offset Overrun Length
02 138 ft / 42 m 8,211 ft / 2,503 m 23.09° 15.31° Concrete 0 ft / 0 m 145 ft / 44 m
20 138 ft / 42 m 8,211 ft / 2,503 m 203.10° 195.32° Concrete 0 ft / 0 m 145 ft / 44 m

UKDD

Details ICAO UKDD (DNK)
Name Dnipropetrovsk Intl
Region Ukraine
Timezone Europe/Kiev (UTC+3.0)
Stats Elevation 481 ft / 147 m (AMSL)
Location 48.357222° 35.100556°
Runways 1
Magnetic Variation 7.889° E

METAR

UKDD 220030Z 01002MPS CAVOK 11/09 Q1020 R08/090070 NOSIG

Decode

TAF

TAF UKDD 212305Z 2200/2224 VRB02MPS 2100 BR SCT030 TEMPO 2200/2206 0300 FG VV002 BECMG 2206/2208 01004MPS 9999 BKN030

Decode

Destination Runways

ID Width Length Bearing (true) Bearing (mag) Surface Threshold Offset Overrun Length
09 144 ft / 44 m 9,359 ft / 2,853 m 89.99° 82.10° Concrete 0 ft / 0 m 0 ft / 0 m
27 144 ft / 44 m 9,359 ft / 2,853 m 270.01° 262.12° Concrete 0 ft / 0 m 0 ft / 0 m

Approach Navaids

Runway Type Ident Frequency Range Bearing (true) Bearing (mag) Slope Elevation
09 Localiser IDP 109.50 MHz 18 nm / 33 km 80.68° 72.79° - 481 ft / 147 m (AMSL)
09 Glidescope IDP 109.50 MHz 10 nm / 19 km 90.00° 82.11° 2.50° 481 ft / 147 m (AMSL)
27 Localiser IDR 110.30 MHz 18 nm / 33 km 269.98° 262.09° - 481 ft / 147 m (AMSL)
27 Glidescope IDR 110.30 MHz 10 nm / 19 km 270.00° 262.11° 3.00° 481 ft / 147 m (AMSL)

Popular Alternatives